[[{"header":{"parameterUnit":"m.s-1","parameterCategory":1,"la1":30.2991,"la2":30.254,"lo1":-89.0895,"lo2":-89.0444,"dy":0.0017,"dx":0.0017,"nx":28,"ny":28,"refTime":"2024-10-07T21:00:00:Z","depth":0,"parameterNumber":2,"parameterNumberName":"U-component_of_WINDS"},"data":[0,0,0,0,0,0,0,0,0,0,0,0,0,0,0,0,0,0,0,0,0,0,0,0,0,0,0,0,0,0,0,0,0,0,0,0,0,0,0,0,0,0,0,0,0,0,0,0,0,0,0,0,0,0,0,0,0,0,-1.3591,-1.3592,0,-1.3665,-1.3666,-1.3666,-1.3637,-1.3635,-1.3633,-1.3631,-1.3709,-1.3713,-1.3716,0,0,0,0,0,0,0,0,0,0,0,0,0,-1.3426,-1.3429,-1.3591,-1.3592,-1.3593,-1.3665,-1.3666,-1.3667,-1.3637,-1.3635,-1.3633,-1.3631,-1.3708,-1.3712,-1.3717,0,0,0,0,0,0,0,0,0,0,0,0,0,-1.3498,-1.343,-1.3591,-1.3587,-1.3587,-1.3664,-1.3666,-1.3667,-1.3637,-1.3635,-1.3632,-1.363,-1.3706,-1.3712,-1.3717,-1.3804,0,0,-1.3734,-1.3736,0,0,0,0,0,0,0,0,-1.3494,-1.3505,-1.3586,-1.3587,-1.3588,-1.3639,-1.3636,-1.3713,-1.3638,-1.3618,-1.3631,-1.3628,-1.3688,-1.3695,-1.3714,-1.3807,-1.3811,-1.3735,-1.3738,-1.374,-1.3742,0,0,0,0,0,0,0,-1.3489,-1.3501,-1.362,-1.3588,-1.3588,-1.3581,-1.3589,-1.365,-1.3667,-1.362,-1.3618,-1.3627,-1.3688,-1.3709,-1.3716,-1.3812,-1.3734,-1.3739,-1.3743,-1.3745,-1.398,-1.3982,0,0,0,0,0,0,-1.3484,-1.3497,-1.3618,-1.3622,-1.3533,-1.3586,-1.3595,-1.3625,-1.3666,-1.367,-1.3629,-1.3625,-1.3701,-1.371,-1.3719,-1.3823,-1.374,-1.3745,-1.3749,-1.3977,-1.398,-1.3983,0,0,0,0,0,0,-1.3481,-1.3495,-1.3615,-1.3559,-1.3574,-1.3592,-1.3626,-1.3628,-1.3649,-1.3673,-1.3676,-1.3648,-1.3699,-1.3711,-1.3783,-1.3826,-1.3748,-1.3753,-1.3973,-1.3978,-1.3982,-1.4033,0,0,0,0,0,0,-1.3476,-1.3494,-1.3527,-1.356,-1.3577,-1.3678,-1.3629,-1.3631,-1.3659,-1.3654,-1.3691,-1.3695,-1.3698,-1.3775,-1.3788,-1.3832,-1.3757,-1.397,-1.3975,-1.398,-1.4028,-1.4039,-1.4048,0,0,0,0,0,-1.347,-1.3539,-1.3529,-1.3544,-1.3619,-1.368,-1.369,-1.3691,-1.3662,-1.3696,-1.3711,-1.3694,-1.3818,-1.3782,-1.3797,-1.3843,-1.3967,-1.3974,-1.398,-1.4023,-1.4037,-1.4048,0,0,0,0,0,0,-1.3511,-1.3543,-1.3532,-1.3614,-1.3644,-1.3675,-1.3718,-1.3705,-1.3746,-1.374,-1.374,-1.3749,-1.3823,-1.384,-1.3799,-1.3929,-1.3888,-1.3898,-1.3916,-1.3929,-1.3939,-1.3934,-1.3762,0,0,0,0,0,-1.353,-1.3577,-1.3602,-1.3672,-1.3687,-1.37,-1.3727,-1.3725,-1.3757,-1.377,-1.379,-1.3822,-1.3869,-1.3899,-1.3943,-1.4029,-1.4037,-1.4068,-1.4078,-1.4087,-1.4096,-1.4143,-1.4157,-1.4005,-1.4005,-1.4005,0,0,-1.3569,-1.3592,-1.3622,-1.368,-1.3704,-1.3753,-1.3711,-1.3765,-1.3801,-1.3778,-1.3848,-1.3863,-1.3899,-1.3979,-1.4015,-1.3995,-1.4139,-1.4095,-1.4101,-1.4106,-1.4151,-1.4166,-1.4179,-1.4009,-1.4009,-1.4008,0,0,-1.3665,-1.3687,-1.3748,-1.3772,-1.3807,-1.3815,-1.3829,-1.3861,-1.3871,-1.394,-1.3923,-1.3967,-1.4046,-1.4073,-1.4097,-1.4201,-1.4188,-1.4215,-1.427,-1.4316,-1.4328,-1.4338,-1.4377,-1.4391,-1.4224,-1.4224,-1.4224,0,-1.371,-1.3783,-1.378,-1.3836,-1.3862,-1.3842,-1.3903,-1.3927,-1.3975,-1.3994,-1.3971,-1.407,-1.4092,-1.4178,-1.4204,-1.4223,-1.424,-1.4212,-1.4326,-1.4337,-1.4347,-1.4383,-1.4398,-1.4227,-1.4227,-1.4226,-1.4226,0,-1.3836,-1.3887,-1.3931,-1.3978,-1.4009,-1.4067,-1.4074,-1.4106,-1.4101,-1.4111,-1.4181,-1.4207,-1.4256,-1.4276,-1.4272,-1.4361,-1.4348,-1.4325,-1.4284,-1.4364,-1.4399,-1.4413,-1.4232,-1.4231,-1.423,-1.4229,0,0,-1.3964,-1.4006,-1.4023,-1.4044,-1.4081,-1.412,-1.4177,-1.4224,-1.4252,-1.4285,-1.4334,-1.44,-1.4379,-1.4406,-1.4404,-1.4445,-1.4527,-1.4417,-1.4418,-1.4438,-1.4628,-1.4646,-1.4663,-1.4517,-1.452,-1.4522,-1.4626,0,-1.4064,-1.4164,-1.4163,-1.4255,-1.4302,-1.4283,-1.4332,-1.436,-1.4371,-1.4412,-1.4423,-1.4472,-1.444,-1.4456,-1.4494,-1.4509,-1.4566,-1.4501,-1.4563,-1.4566,-1.4557,-1.4681,-1.4701,-1.4798,-1.4639,-1.4641,-1.4643,0,-1.4196,-1.4233,-1.433,-1.4359,-1.4379,-1.4424,-1.4466,-1.4506,-1.4537,-1.4542,-1.4571,-1.4563,-1.4621,-1.4576,-1.4657,-1.4613,-1.4638,-1.4649,-1.4652,-1.466,-1.4611,-1.4694,-1.4828,-1.4844,-1.4664,-1.4662,-1.4661,0,-1.4281,-1.4355,-1.4422,-1.4441,-1.4476,-1.4508,-1.4525,-1.4553,-1.4581,-1.4618,-1.4637,-1.468,-1.4704,-1.4738,-1.4742,-1.4709,-1.4823,-1.4779,-1.483,-1.483,-1.4857,-1.4856,-1.5,-1.487,-1.4869,-1.4869,-1.4869,0,-1.4395,-1.4456,-1.4461,-1.4503,-1.457,-1.4568,-1.4635,-1.4648,-1.4673,-1.4718,-1.4702,-1.4745,-1.4746,-1.4789,-1.4792,-1.4859,-1.4869,-1.4875,-1.4876,-1.4878,-1.4878,-1.4896,-1.489,-1.4873,-1.4872,-1.4871,-1.4871,0,-1.4503,-1.4509,-1.4582,-1.4609,-1.4617,-1.4665,-1.4689,-1.4729,-1.4736,-1.4793,-1.4806,-1.4819,-1.4869,-1.4875,-1.4933,-1.4935,-1.5016,-1.5008,-1.5006,-1.5005,-1.5056,-1.5052,-1.5219,-1.5241,-1.5095,-1.5096,-1.5097,0,-1.4577,-1.4623,-1.4654,-1.4683,-1.4701,-1.4746,-1.4774,-1.4773,-1.4803,-1.4841,-1.4877,-1.4925,-1.4964,-1.5044,-1.5059,-1.5103,-1.5098,-1.5153,-1.5105,-1.5105,-1.5101,-1.5099,-1.5104,-1.5164,-1.5165,-1.5166,-1.5167,0,-1.4707,-1.4707,-1.4748,-1.479,-1.4824,-1.4857,-1.4888,-1.4912,-1.4915,-1.4949,-1.5,-1.5029,-1.5088,-1.5136,-1.518,-1.5197,-1.5184,-1.5182,-1.5197,-1.5201,-1.5198,-1.5202,-1.5033,-1.5179,-1.5178,-1.5177,-1.5176,-1.5176,-1.4802,-1.4842,-1.487,-1.4916,-1.4939,-1.4968,-1.5007,-1.5019,-1.506,-1.5108,-1.5104,-1.516,-1.5189,-1.5246,-1.5266,-1.531,-1.5292,-1.5312,-1.5318,-1.5324,-1.533,-1.5189,-1.5317,-1.5317,-1.5317,-1.5316,-1.5316,0,-1.4933,-1.4949,-1.4992,-1.5035,-1.5071,-1.5053,-1.5086,-1.5118,-1.5167,-1.5195,-1.5233,-1.529,-1.5337,-1.5354,-1.5399,-1.5431,-1.5426,-1.5443,-1.5442,-1.5446,-1.5342,-1.5326,-1.5447,-1.5447,-1.5447,-1.5447,-1.5447,-1.5446,-1.5006,-1.5073,-1.5076,-1.5154,-1.517,-1.5224,-1.5245,-1.5272,-1.5294,-1.5359,-1.5397,-1.5407,-1.5431,-1.5478,-1.552,-1.5523,-1.5542,-1.5562,-1.5564,-1.5467,-1.5454,-1.5441,-1.5426,-1.5566,-1.5566,-1.5664,-1.5665,-1.5666]},{"header":{"parameterUnit":"m.s-1","parameterCategory":1,"la1":30.2991,"la2":30.254,"lo1":-89.0895,"lo2":-89.0444,"dy":0.0017,"dx":0.0017,"nx":28,"ny":28,"refTime":"2024-10-07T21:00:00:Z","depth":0,"parameterNumber":3,"parameterNumberName":"V-component_of_WINDS"},"data":[0,0,0,0,0,0,0,0,0,0,0,0,0,0,0,0,0,0,0,0,0,0,0,0,0,0,0,0,0,0,0,0,0,0,0,0,0,0,0,0,0,0,0,0,0,0,0,0,0,0,0,0,0,0,0,0,0,0,-6.1921,-6.1922,0,-6.2006,-6.2007,-6.2008,-6.1917,-6.1914,-6.191,-6.1907,-6.1989,-6.1994,-6.1999,0,0,0,0,0,0,0,0,0,0,0,0,0,-6.1674,-6.1679,-6.1921,-6.1922,-6.1923,-6.2006,-6.2007,-6.2008,-6.1918,-6.1913,-6.1909,-6.1905,-6.1987,-6.1993,-6.2,0,0,0,0,0,0,0,0,0,0,0,0,0,-6.1772,-6.168,-6.1921,-6.1888,-6.1886,-6.2006,-6.2007,-6.2009,-6.1919,-6.1913,-6.1908,-6.1903,-6.1985,-6.1993,-6.2001,-6.2156,0,0,-6.2026,-6.2029,0,0,0,0,0,0,0,0,-6.1767,-6.1781,-6.1892,-6.189,-6.1888,-6.1946,-6.195,-6.2058,-6.192,-6.1906,-6.1907,-6.1901,-6.1978,-6.1987,-6.2014,-6.2159,-6.2163,-6.2026,-6.2031,-6.2035,-6.2037,0,0,0,0,0,0,0,-6.176,-6.1777,-6.1954,-6.1893,-6.1891,-6.1867,-6.1875,-6.197,-6.197,-6.1907,-6.19,-6.1912,-6.1976,-6.2006,-6.2015,-6.2164,-6.2026,-6.2033,-6.2038,-6.2042,-6.244,-6.2446,0,0,0,0,0,0,-6.1758,-6.1772,-6.1952,-6.1957,-6.1814,-6.1876,-6.1885,-6.1933,-6.1969,-6.197,-6.1916,-6.1907,-6.1995,-6.2006,-6.2018,-6.2201,-6.2035,-6.2042,-6.2047,-6.2434,-6.2441,-6.2448,0,0,0,0,0,0,-6.1753,-6.1775,-6.1948,-6.1863,-6.1883,-6.1886,-6.194,-6.1937,-6.1967,-6.1976,-6.1975,-6.1948,-6.1991,-6.2006,-6.2122,-6.2203,-6.2046,-6.2053,-6.2428,-6.2437,-6.2444,-6.257,0,0,0,0,0,0,-6.1746,-6.1773,-6.1834,-6.1865,-6.1888,-6.2054,-6.1945,-6.1942,-6.1982,-6.1971,-6.2005,-6.2006,-6.1988,-6.2111,-6.213,-6.2211,-6.206,-6.242,-6.2432,-6.2442,-6.2559,-6.2582,-6.2602,0,0,0,0,0,-6.1737,-6.1865,-6.1837,-6.1859,-6.1964,-6.2059,-6.2072,-6.2051,-6.1989,-6.2049,-6.2054,-6.2005,-6.2191,-6.2123,-6.2145,-6.2229,-6.2415,-6.2429,-6.2441,-6.2549,-6.2578,-6.2601,0,0,0,0,0,0,-6.1841,-6.1868,-6.1838,-6.198,-6.2018,-6.2043,-6.2118,-6.2081,-6.2136,-6.2123,-6.2093,-6.2101,-6.2225,-6.2238,-6.2162,-6.2381,-6.2293,-6.231,-6.2368,-6.2395,-6.2416,-6.241,-6.2067,0,0,0,0,0,-6.188,-6.1957,-6.1976,-6.2099,-6.2119,-6.2116,-6.2156,-6.2137,-6.2174,-6.2189,-6.2203,-6.224,-6.2307,-6.2351,-6.2413,-6.256,-6.2566,-6.2629,-6.265,-6.2668,-6.2683,-6.2762,-6.279,-6.249,-6.249,-6.2489,0,0,-6.1962,-6.1987,-6.2036,-6.212,-6.2147,-6.2225,-6.213,-6.2216,-6.2274,-6.2202,-6.2313,-6.2325,-6.2363,-6.2496,-6.2554,-6.2511,-6.2768,-6.2684,-6.2698,-6.2704,-6.2778,-6.2806,-6.2831,-6.2498,-6.2497,-6.2495,0,0,-6.2152,-6.2178,-6.2284,-6.2313,-6.2356,-6.2353,-6.2378,-6.241,-6.2415,-6.2527,-6.2474,-6.254,-6.2656,-6.2686,-6.2716,-6.2917,-6.2873,-6.2937,-6.305,-6.3126,-6.315,-6.3171,-6.3242,-6.3268,-6.2953,-6.2953,-6.2953,0,-6.2248,-6.2365,-6.2342,-6.2433,-6.2471,-6.2411,-6.2516,-6.2545,-6.2606,-6.2632,-6.2583,-6.2727,-6.2748,-6.2887,-6.2936,-6.2962,-6.2989,-6.2934,-6.3149,-6.3169,-6.3188,-6.3256,-6.3283,-6.2961,-6.296,-6.2959,-6.2958,0,-6.2481,-6.2563,-6.2643,-6.2705,-6.2751,-6.2849,-6.2839,-6.2888,-6.2865,-6.2866,-6.2979,-6.3003,-6.3069,-6.31,-6.3077,-6.3235,-6.3207,-6.3154,-6.3065,-6.3225,-6.3288,-6.3314,-6.2972,-6.2969,-6.2967,-6.2965,0,0,-6.2738,-6.2787,-6.2816,-6.2844,-6.2887,-6.2949,-6.3043,-6.3109,-6.3152,-6.3195,-6.3272,-6.3372,-6.3323,-6.3357,-6.3337,-6.3404,-6.3561,-6.3342,-6.3343,-6.3382,-6.3736,-6.3776,-6.3807,-6.3532,-6.3537,-6.3541,-6.3733,0,-6.2929,-6.3095,-6.3077,-6.3234,-6.3309,-6.3253,-6.3335,-6.3369,-6.3373,-6.3435,-6.3438,-6.3509,-6.3439,-6.3459,-6.3523,-6.3529,-6.3632,-6.3514,-6.3603,-6.3606,-6.3595,-6.384,-6.3883,-6.4063,-6.3757,-6.3762,-6.3765,0,-6.3174,-6.3228,-6.3394,-6.3426,-6.3456,-6.3531,-6.3589,-6.365,-6.3687,-6.3685,-6.3724,-6.3691,-6.3784,-6.3693,-6.3819,-6.374,-6.3775,-6.3783,-6.3789,-6.3796,-6.3696,-6.3854,-6.412,-6.4147,-6.3803,-6.38,-6.3797,0,-6.3345,-6.3459,-6.3573,-6.3598,-6.3638,-6.3691,-6.371,-6.3742,-6.3783,-6.3833,-6.3859,-6.3919,-6.3952,-6.3998,-6.3982,-6.3917,-6.4112,-6.4019,-6.4111,-6.4112,-6.4155,-6.4153,-6.4431,-6.4177,-6.4177,-6.4176,-6.4176,0,-6.356,-6.3664,-6.3651,-6.3721,-6.3835,-6.3812,-6.3924,-6.3935,-6.3964,-6.4034,-6.3988,-6.4054,-6.4029,-6.4093,-6.408,-6.4187,-6.4202,-6.4201,-6.4197,-6.4206,-6.4206,-6.4228,-6.4216,-6.4183,-6.4182,-6.418,-6.4179,0,-6.3771,-6.3767,-6.3888,-6.3915,-6.3925,-6.4007,-6.403,-6.4095,-6.4095,-6.4184,-6.4203,-6.4202,-6.4275,-6.4264,-6.4344,-6.4336,-6.4469,-6.4449,-6.4457,-6.4453,-6.4545,-6.4537,-6.4848,-6.4887,-6.4608,-6.4611,-6.4613,0,-6.3909,-6.3988,-6.4025,-6.4069,-6.4092,-6.4164,-6.4206,-6.4185,-6.423,-6.4278,-6.4337,-6.4406,-6.4461,-6.458,-6.4585,-6.4646,-6.4627,-6.4732,-6.4636,-6.4642,-6.4629,-6.4625,-6.4632,-6.4751,-6.4754,-6.4757,-6.4759,0,-6.4154,-6.4148,-6.4211,-6.4274,-6.4326,-6.4374,-6.4417,-6.4455,-6.4438,-6.449,-6.4566,-6.4608,-6.4691,-6.476,-6.4817,-6.4833,-6.4794,-6.4789,-6.4813,-6.4823,-6.4825,-6.4826,-6.4509,-6.4782,-6.4779,-6.4778,-6.4777,-6.4776,-6.4333,-6.44,-6.4437,-6.4509,-6.4539,-6.458,-6.4643,-6.4651,-6.4714,-6.4782,-6.4764,-6.4849,-6.4883,-6.4956,-6.4979,-6.5043,-6.5005,-6.504,-6.5049,-6.5058,-6.507,-6.4815,-6.5054,-6.5053,-6.5052,-6.5052,-6.5051,0,-6.4575,-6.4597,-6.4663,-6.4725,-6.4782,-6.4741,-6.4786,-6.4835,-6.4911,-6.4947,-6.5001,-6.5087,-6.5154,-6.5165,-6.5227,-6.5277,-6.526,-6.5294,-6.529,-6.5295,-6.5101,-6.5073,-6.5307,-6.5307,-6.5307,-6.5307,-6.5307,-6.5307,-6.4709,-6.4821,-6.4819,-6.4945,-6.4964,-6.5049,-6.5078,-6.5115,-6.5144,-6.5242,-6.5298,-6.5305,-6.5331,-6.5395,-6.5453,-6.5455,-6.548,-6.5521,-6.5516,-6.5334,-6.5308,-6.5284,-6.5258,-6.5527,-6.5527,-6.5704,-6.5706,-6.5707]}]]